#timestamp,LO_Frequency,Hit,StdDev 
1511715615.1,286046991.0,N
1511715635.8,286046993.9,N
1511715655.7,286046991.9,N
1511715675.5,286046994.9,N
1511715695.3,286046995.3,N
1511715715.2,286046996.5,N
1511715735.9,286046997.8,N
1511715755.7,286046999.5,N
1511715775.6,286047000.8,N
1511715795.4,286046999.3,N
1511715815.2,286047000.0,N
1511715835.0,286047004.4,N
1511715836.0,286047004.4,N
1511715855.8,286047001.4,N
1511715875.6,286047000.5,N
1511715895.4,286047000.4,N
1511715915.3,286046999.0,N
1511715935.1,286046996.8,N
1511715955.8,286046990.6,N
1511715975.7,286046993.9,N
1511715995.5,286046996.1,N
1511716015.3,286046995.2,N
1511716035.2,286046996.2,N
1511716055.9,286046996.1,N
1511716075.7,286046997.6,N
1511716095.6,286046995.4,N
1511716115.4,286046994.1,N
1511716135.2,286046987.4,Y
1511716155.1,286046992.3,P
1511716156.0,286046992.3,P
1511716175.8,286046991.8,P
1511716195.6,286046994.7,N
1511716215.5,286046993.0,Y
1511716235.3,286046992.6,P
1511716255.1,286046991.4,P
1511716275.9,286046992.1,P
1511716295.7,286046994.6,Y
1511716315.5,286046998.9,P
1511716335.4,286046995.6,N
1511716355.2,286046994.1,N
1511716375.0,286046993.6,N
1511716375.9,286046993.6,N
1511716395.8,286046991.8,Y
1511716415.6,286046999.0,P
1511716435.4,286046999.1,N
1511716455.3,286046996.6,N
1511716475.1,286046997.5,N
1511716476.0,286046997.5,N
1511716495.8,286046997.2,N
1511716515.6,286046999.3,N
1511716535.5,286046994.9,Y
1511716555.3,286046998.7,P
1511716575.1,286046997.0,P
1511716595.9,286046995.7,P
1511716615.7,286046994.1,Y
1511716635.6,286046993.8,P
1511716655.4,286046997.5,N
1511716675.2,286046998.0,N
1511716695.0,286046997.1,N
1511716695.9,286046997.1,N
1511716715.8,286046996.1,N
1511716735.6,286046994.8,Y
1511716755.4,286046997.2,P
1511716775.3,286047000.4,N
1511716795.1,286047000.3,N
1511716815.8,286046997.3,N
1511716835.7,286046998.2,N
1511716855.5,286046996.9,N
1511716875.3,286046999.8,N
1511716895.2,286047002.0,N
1511716915.9,286046999.6,N
1511716935.7,286046997.6,N
1511716955.6,286046996.9,N
1511716975.4,286046994.9,Y
1511716995.2,286046996.3,P
1511717015.1,286046994.4,P
1511717016.0,286046994.4,P
1511717035.8,286046990.4,Y
1511717055.6,286046991.9,P
1511717075.5,286046994.6,N
1511717095.3,286046998.0,N
1511717115.1,286046995.6,N
1511717135.9,286046997.1,N
1511717155.7,286046996.9,N
1511717175.5,286047000.6,N
1511717195.4,286046998.8,N
1511717215.2,286046997.3,N
1511717235.0,286046997.9,N
1511717235.9,286046997.9,N
1511717255.7,286046998.2,N
1511717275.6,286046995.8,N
1511717295.4,286046995.2,N
1511717315.2,286046998.9,N
1511717335.1,286047003.0,N
1511717336.0,286047003.0,N
1511717355.8,286047005.7,N
1511717375.6,286047003.7,N
1511717395.5,286047001.8,N
1511717415.3,286046998.3,N
1511717435.1,286046999.1,N
1511717455.9,286046995.3,N
1511717475.7,286046997.9,N
1511717495.5,286046992.5,N
1511717515.4,286046989.8,Y
1511717535.2,286046991.3,P
1511717555.0,286046988.7,P
1511717555.9,286046988.7,N
1511717575.8,286046985.8,Y
1511717595.6,286046995.2,P
1511717615.4,286046992.1,P
1511717635.3,286046994.5,P
1511717655.1,286046995.6,N
1511717656.0,286046995.6,N
1511717675.8,286046993.4,Y
1511717695.7,286047004.2,P
1511717715.5,286047004.9,N
1511717735.3,286047005.3,N
1511717755.2,286047005.6,N
1511717775.9,286047005.8,N
1511717795.7,286047006.5,N
1511717815.6,286047009.7,N
1511717835.4,286047013.2,Y
1511717855.2,286047010.0,P
1511717875.1,286047008.3,P
1511717876.0,286047008.3,P
1511717895.8,286047008.9,Y
1511717915.6,286046999.1,P
1511717935.5,286047000.5,N
1511717955.3,286047001.4,N
1511717975.1,286047001.6,N
1511717995.9,286047005.2,N
1511718015.7,286047006.4,N
1511718035.5,286047009.1,N
1511718055.3,286047008.8,N
1511718075.2,286047009.0,N
1511718095.0,286047008.1,N
1511718095.9,286047008.1,N
1511718115.7,286047008.4,N
1511718135.6,286047009.4,N
1511718155.4,286047011.5,Y
1511718175.2,286047009.1,P
1511718195.1,286047010.4,P
1511718196.0,286047010.4,P
1511718215.8,286047002.9,N
1511718235.6,286047001.4,N
1511718255.5,286047004.9,N
1511718275.3,286047009.0,N
1511718295.1,286047010.3,Y
1511718315.9,286047001.7,P
1511718335.7,286047003.1,N
1511718355.5,286047004.1,N
1511718375.4,286047004.3,N
1511718395.2,286047005.9,Y
1511718415.0,286047002.3,P
1511718415.9,286047002.3,N
1511718435.8,286047005.3,P
1511718455.6,286047011.3,Y
1511718475.4,286047013.0,P
1511718495.3,286047016.4,P
1511718515.1,286047021.2,P
1511718516.0,286047021.2,Y
1511718535.8,286047008.3,P
1511718555.7,286047010.0,P
1511718575.5,286047012.0,P
1511718595.3,286047014.0,Y
1511718615.2,286047000.1,P
1511718635.9,286047002.2,N
1511718655.7,286047003.3,N
1511718675.6,286047005.2,N
1511718695.4,286047005.9,N
1511718715.2,286047004.8,N
1511718735.1,286047007.1,N
1511718736.0,286047007.1,N
1511718755.8,286047008.7,N
1511718775.6,286047007.0,N
1511718795.5,286047010.8,Y
1511718815.3,286047003.4,P
1511718835.1,286047003.0,N
1511718855.9,286047005.6,P
1511718875.7,286047004.1,Y
1511718895.5,286046996.6,P
1511718915.4,286046997.8,N
1511718935.2,286046997.2,N
1511718955.0,286046992.3,N
1511718955.9,286046992.3,N
1511718975.8,286046988.9,N
1511718995.6,286046990.1,N
1511719015.4,286046992.6,N
1511719035.2,286046990.4,N
1511719055.1,286046993.0,N
1511719056.0,286046993.0,N
1511719075.8,286046988.7,N
1511719095.6,286046992.7,N
1511719115.5,286046988.9,N
1511719135.3,286046988.5,N
1511719155.1,286046994.7,N
1511719175.9,286046993.4,N
1511719195.7,286046993.7,N
